User: anonymous   Login
Location: Brno
(49.2000°N, 16.6330°E)
Time: 10:41:29
(UTC+02:00)
Language:

BREEZE M DEB (TANK) - Orbit

View from above orbital plane
View from above orbital plane
View from above satellite
View from above satellite

Ground track
Ground track

The orbit data is extracted from the following two-line orbital elements,

1 28359U 04022B   16273.15144625 +.00004618 +00000-0 +56857-3 0  9995
2 28359 049.5258 307.6039 4676522 006.0008 358.1425 06.18691792269123
Epoch (UTC): 29 September 2016 03:38:04
Eccentricity: 0.4676522
inclination: 49.5258°
perigee height: 294 km
apogee height: 12017 km
right ascension of ascending node: 307.6039°
argument of perigee: 6.0008°
revolutions per day: 6.18691792
mean anomaly at epoch: 358.1425°
orbit number at epoch: 26912

The dashed part of the orbit path shows where the satellite is in the earth's shadow,  

DLR